STARLINK-1363, 45568

Orbit data source: Space-Track

STARLINK-1363, 45568 is a payload satellite owned by SpaceX/Seattle (US) in LEO that was launched on Wed, 22 Apr 2020 UTC via an FALCON 9 launch vehicle from the Air Force Eastern Test Range (AFETR). Payload-class satellites include a variety of spacecraft equipped with specific instruments for various scientific and technological missions. These include communications satellites like Starlink; space stations such as the ISS; scientific satellites like the Hubble; Earth observation satellites from companies like Planet Labs, Umbra, and HawkEye 360; GPS; miniature CubeSats for education and research; and military/defense satellites.

Loading next visibility...
Identifier
45568, 2020-025AP
Orbit
LEO
Country
Flag of USUS
Related business
Manufacturer
SpaceX/Seattle
Mission
Partially operational Commercial Communications
Bus & Motor
STARLINK, Unknown motor
Mass
260 kg wet, ~248 kg dry
Launch date (UTC)
2020-04-22 (6 years ago)
Launch vehicle
FALCON 9
Launch site
Air Force Eastern Test Range (AFETR)
Object type
Payload
Rocket body
Debris
Shape & HBR
Box + 1 Pan, 10.1 m
Radar Cross Section
13.562 m², Large (>1 m²)

Expand to show TLE details & history
Last TLE update: 2 hours ago

TLE from 2 hours ago
0 STARLINK-1363
1 45568U 20025AP  26129.91668980  .00265902  40284-4  54404-3 0  9990
2 45568  53.0323  87.6202 0002043 113.5063  96.2284 15.98934181  5554
Epoch: 2026-05-09T22:00Z
TLE epoch observation values (Epoch: 2026-05-09T22:00:01.998Z)
Latitude
-23.5617°
Longitude
88.93348°
Altitude
284.28 km
Speed
7.737 km/s
True Right ascension
19h 06m 40s
True Declination
-23° 25' 37"
Sunlit
Object was in full shadow at epoch
Visualization orbit readout
Latitude
Unknown
Longitude
Unknown
Altitude
Unknown
Speed
Unknown
Apparent Right ascension
Unknown
Apparent Declination
Unknown
Sunlit
N/A
Visualization observer readout
Local Sidereal Time
08:37:23
Azimuth
Unknown
Elevation
Unknown
Doppler factor
Unknown
Orbital elements
Apogee altitude
279.02 km
Perigee altitude
276.3 km
Semi-major axis
6,655.797 km
Eccentricity
0.0002
Inclination
53.0323°
RAAN
87.6202°
Arg. of periapsis
113.5063°
True anomaly
96.25167°
Mean anomaly
96.2284°
Eccentric anomaly
96.24004°
Mean motion
3.99708 °/min
Orbital period
90.07 mins
BSTAR
0.00054404
Loading maneuver chart data...
Computing Atmospheric mass density...

Documentation

Showing up to 5 results
|